Showing default

3CAT-4, 60236

Orbit data source: Space-Track

3CAT-4, 60236 is a payload satellite owned by UPC (ES) in LEO that was launched on Tue, 09 Jul 2024 UTC via an ARIANE 62 launch vehicle from the French Guiana (FRGUI). Payload-class satellites include a variety of spacecraft equipped with specific instruments for various scientific and technological missions. These include communications satellites like Starlink; space stations such as the ISS; scientific satellites like the Hubble; Earth observation satellites from companies like Planet Labs, Umbra, and HawkEye 360; GPS; miniature CubeSats for education and research; and military/defense satellites.

Loading next visibility...
Identifier
60236, 2024-128B
Orbit
LEO
Country
Flag of ESES / SPN
Related business
Manufacturer
UPC
Mission
Non-operational Amateur Technology
Bus & Motor
CUBESAT 1U, Unknown motor
Mass
1 kg wet, 1 kg dry
Launch date (UTC)
2024-07-09 (2 years ago)
Launch vehicle
ARIANE 62
Launch site
French Guiana (FRGUI)
Object type
Payload
Rocket body
Debris
Shape & HBR
Box + 1 Rod, 0.3 m
Radar Cross Section
0.015 m², Medium (>0.1 m² and < 1m²)

Expand to show TLE details & history
Last TLE update: 8 hours ago

TLE from 8 hours ago
0 3CAT-4
1 60236U 24128B   26264.94294571  .00000855  00000-0  79354-4 0  9995
2 60236  61.9918 248.5063 0028647 161.1045 199.1116 15.02490372120640
Epoch: 2026-09-21T22:37Z
TLE epoch observation values (Epoch: 2026-09-21T22:37:50.509Z)
Latitude
-0.00002°
Longitude
-91.76969°
Altitude
579.776 km
Speed
7.561 km/s
True Right ascension
16h 34m 01s
True Declination
0° 00' 00"
Sunlit
Object was in daylight at epoch
Visualization orbit readout
Latitude
Unknown
Longitude
Unknown
Altitude
Unknown
Speed
Unknown
Apparent Right ascension
Unknown
Apparent Declination
Unknown
Sunlit
N/A
Visualization observer readout
Local Sidereal Time
23:19:18
Azimuth
Unknown
Elevation
Unknown
Doppler factor
Unknown
Orbital elements
Apogee altitude
578.02 km
Perigee altitude
538.28 km
Semi-major axis
6,936.287 km
Eccentricity
0.00286
Inclination
61.9918°
RAAN
248.5063°
Arg. of periapsis
161.1045°
True anomaly
199.00448°
Mean anomaly
199.1116°
Eccentric anomaly
199.05801°
Mean motion
3.7571 °/min
Orbital period
95.82 mins
BSTAR
0.000079354
Loading maneuver chart data...
Computing Atmospheric mass density...
Loading historical data...
Loading historical data...
Loading historical data...
Loading historical data...
Loading historical data...
Loading historical data...
Loading historical data...

Documentation

Showing up to 5 results
|